Biloxi, MS

2:03 AM CDT on April 28, 2017 (GMT -0500)
Keesler Air Force Base

Weather History for KBIX - May, 2013

Change the Weather History Date:

Friday, May 24, 2013

  Actual Average Record
Temperature  
Mean Temperature 80 °F -  
Max Temperature 88 °F 85 °F 96 °F (2005)
Min Temperature 72 °F 70 °F 55 °F (1951)
Cooling Degree Days 15    
Growing Degree Days 30 (Base 50)    
Moisture  
Dew Point 68 °F    
Average Humidity 68    
Maximum Humidity 91    
Minimum Humidity 49    
Precipitation  
Precipitation 0.00 in - - ()
Sea Level Pressure  
Sea Level Pressure 30.11 in    
Wind  
Wind Speed 4 mph (NE)    
Max Wind Speed 12 mph    
Max Gust Speed -    
Visibility 10 miles    
Events      
Averages and records for this station are not official NWS values.
T = Trace of Precipitation, MM = Missing Value Source: NWS Daily Summary

Daily Weather History Graph

Daily Weather History Graph

Search for Another Location

Airport or City:

Trip Planner

Search our weather history database for the weather conditions in past years. The results will help you decide how hot, cold, wet, or windy it might be!

Date:

Astronomy

May. 24, 2013 Rise Set
Actual Time 5:56 AM CDT 7:48 PM CDT
Civil Twilight 5:29 AM CDT 8:15 PM CDT
Nautical Twilight 4:57 AM CDT 8:48 PM CDT
Astronomical Twilight 4:23 AM CDT 9:22 PM CDT
Moon 7:32 PM CDT (5/24) 5:25 AM CDT (5/24)
Length of Visible Light 14h 45m
Length of Day
13h 52m
Full, 100% of the Moon is Illuminated
May 24
Full
May 24
Full
May 31
Last Quarter
Jun 8
New
Jun 16
First Quarter

Hourly Weather History & Observations

Time (CDT) Temp. Heat Index Dew Point Humidity Pressure Visibility Wind Dir Wind Speed Gust Speed Precip Events Conditions
12:58 AM 77.2 °F - 73.2 °F 88% 30.05 in 10.0 mi Calm Calm - N/A   Clear
1:58 AM 77.5 °F - 74.1 °F 89% 30.05 in 10.0 mi Calm Calm - N/A   Clear
2:58 AM 75.9 °F - 73.0 °F 91% 30.04 in 10.0 mi Calm Calm - N/A   Clear
3:58 AM 75.6 °F - 71.8 °F 88% 30.05 in 10.0 mi Variable 1.2 mph - N/A   Clear
4:58 AM 74.8 °F - 71.8 °F 90% 30.06 in 10.0 mi Calm Calm - N/A   Clear
5:58 AM 74.1 °F - 71.4 °F 91% 30.07 in 10.0 mi Calm Calm - N/A   Partly Cloudy
6:58 AM 74.7 °F - 71.8 °F 91% 30.10 in 10.0 mi Variable 2.3 mph - N/A   Mostly Cloudy
7:58 AM 76.3 °F - 70.5 °F 82% 30.12 in 10.0 mi NE 8.1 mph - N/A   Clear
8:58 AM 80.4 °F 83.1 °F 68.0 °F 66% 30.13 in 10.0 mi NE 10.4 mph - N/A   Clear
9:58 AM 82.8 °F 85.3 °F 67.3 °F 59% 30.15 in 10.0 mi NNE 9.2 mph - N/A   Clear
10:58 AM 84.6 °F 87.6 °F 67.8 °F 57% 30.15 in 10.0 mi NE 8.1 mph - N/A   Clear
11:58 AM 84.4 °F 87.3 °F 67.5 °F 57% 30.16 in 10.0 mi NNE 10.4 mph - N/A   Mostly Cloudy
12:58 PM 86.5 °F 90.0 °F 68.0 °F 54% 30.15 in 10.0 mi NNE 8.1 mph - N/A   Clear
1:58 PM 87.3 °F 90.9 °F 68.2 °F 53% 30.15 in 10.0 mi NE 11.5 mph - N/A   Partly Cloudy
2:58 PM 87.1 °F 90.2 °F 67.3 °F 52% 30.14 in 10.0 mi NNE 8.1 mph - N/A   Partly Cloudy
3:58 PM 86.7 °F 89.0 °F 66.0 °F 50% 30.13 in 10.0 mi NNE 8.1 mph - N/A   Partly Cloudy
4:58 PM 87.1 °F 90.2 °F 67.6 °F 52% 30.11 in 10.0 mi NE 8.1 mph - N/A   Partly Cloudy
5:58 PM 85.6 °F 87.1 °F 64.8 °F 49% 30.10 in 10.0 mi NE 8.1 mph - N/A   Clear
6:58 PM 83.5 °F 85.1 °F 64.8 °F 53% 30.10 in 10.0 mi NE 9.2 mph - N/A   Clear
7:58 PM 81.0 °F 82.6 °F 64.6 °F 57% 30.12 in 10.0 mi NNE 8.1 mph - N/A   Clear
8:58 PM 79.0 °F - 64.8 °F 62% 30.14 in 10.0 mi NNE 8.1 mph - N/A   Clear
9:58 PM 76.1 °F - 63.7 °F 65% 30.16 in 10.0 mi NE 10.4 mph - N/A   Clear
10:58 PM 73.8 °F - 62.2 °F 67% 30.17 in 10.0 mi NE 10.4 mph - N/A   Clear
11:58 PM 72.3 °F - 58.3 °F 61% 30.16 in 10.0 mi NE 11.5 mph - N/A   Clear